CAPE
0 0 0 0 0 0 0 0 0 0 0 0 0 0 0 0 0 0 0 0 0 0 0 0 0 0 0 0 0 0 0 0 0 0 0 0 0 0 0 0 0 0 0 0 0
0 0 0 0 0 0 0 0 0 0 0 0 0 0 0 0 0 0 0 0 0 0 0 0 0 0 0 0 0 0 0 0 0 0 0 0 0 0 0 0 0 0 0 0 0
0 0 0 0 0 0 0 0 0 0 0 0 0 0 0 0 0 0 0 0 0 0 0 0 0 0 0 0 0 0 0 0 0 0 0 0 0 0 0 0 0 0 0 0 0
0 0 0 0 0 0 0 0 0 0 0 0 0 0 0 0 0 0 0 0 0 0 0 0 0 0 0 0 0 0 0 0 0 0 0 0 0 0 0 0 0 0 0 0 0
0 0 0 0 0 0 0 0 0 0 0 0 0 0 0 0 0 0 0 0 0 0 0 0 0 0 0 0 0 0 0 0 0 0 0 0 0 0 0 0 0 0 0 0 0
0 0 0 0 0 0 0 0 0 0 0 0 0 0 0 0 0 0 0 0 0 0 0 0 0 0 0 0 0 0 0 0 0 0 0 0 0 0 0 0 0 0 0 0 0
0 0 0 0 0 0 0 0 0 0 0 0 0 0 0 0 0 0 0 0 0 0 0 0 0 0 0 0 0 0 0 0 0 0 0 0 0 0 0 0 0 0 0 0 0
0 0 0 0 0 0 0 0 0 0 0 0 0 0 0 0 0 0 0 0 0 0 0 0 0 0 0 0 0 0 0 0 0 0 0 0 0 0 0 0 0 0 0 0 0
0 0 0 0 0 0 0 0 0 0 0 0 0 0 0 0 0 0 0 0 0 0 0 0 0 0 0 0 0 0 0 0 0 0 0 0 0 0 0 0 0 0 0 0 0
0 0 0 0 0 0 0 0 0 0 0 0 0 0 0 0 0 0 0 0 0 0 0 0 0 0 0 0 0 0 0 0 0 0 0 0 0 0 0 0 0 0 0 0 0
0 0 0 0 0 0 0 0 0 0 0 0 0 0 0 0 0 0 0 0 0 0 0 0 0 0 0 0 0 0 0 0 0 0 0 0 0 0 0 0 0 0 0 0 0
0 0 0 0 0 0 0 0 0 0 0 0 0 0 0 0 0 0 0 0 0 0 0 0 0 0 0 0 0 0 0 0 0 0 0 0 0 0 0 0 0 0 0 0 0
0 0 0 0 0 0 0 0 0 0 0 0 0 0 0 0 0 0 0 0 0 0 0 0 0 0 0 0 0 0 0 0 0 0 0 0 0 0 0 0 0 0 0 0 0
0 0 0 0 0 0 0 0 0 0 0 0 0 0 0 0 0 0 0 0 0 0 0 0 0 0 0 0 0 0 0 0 0 0 0 0 0 0 0 0 0 0 0 0 0
0 0 0 0 0 0 0 0 0 0 0 0 0 0 0 0 0 0 0 0 0 0 0 0 0 0 0 0 0 0 0 0 0 0 0 0 0 0 0 0 0 0 0 0 0
0 0 0 0 0 0 0 0 0 0 0 0 0 0 0 0 0 0 0 0 0 0 0 0 0 0 0 0 0 0 0 0 0 0 0 0 0 0 0 0 0 0 0 0 0
0 0 0 0 0 0 0 0 0 0 0 0 0 0 0 0 0 0 0 0 0 0 0 0 0 0 0 0 0 0 0 0 0 0 0 0 0 0 0 0 0 0 0 0 0
0 0 0 0 0 0 0 0 0 0 0 0 0 0 0 0 0 0 0 0 0 0 0 0 0 0 0 0 0 0 0 0 0 0 0 0 0 0 0 0 0 0 0 0 0
0 0 0 0 0 0 0 0 0 0 0 0 0 0 0 0 0 0 0 0 0 0 0 0 0 0 0 0 0 0 0 0 0 0 0 0 0 0 0 0 0 0 0 0 0
0 0 0 0 0 0 0 0 0 0 0 0 0 0 0 0 0 0 0 0 0 0 0 0 0 0 0 0 0 0 0 0 0 0 0 0 0 0 0 0 0 0 0 0 0
0 0 0 0 0 0 0 0 0 0 0 0 0 0 0 0 0 0 0 0 0 0 0 0 0 0 0 0 0 0 0 0 0 0 0 0 0 0 0 0 0 0 0 0 0
0 0 0 0 0 0 0 0 0 0 0 0 0 0 0 0 0 0 0 0 0 0 0 0 0 0 0 0 0 0 0 0 0 0 0 0 0 0 0 0 0 0 0 0 0
0 0 0 0 0 0 0 0 0 0 0 0 0 0 0 0 0 0 0 0 0 0 0 0 0 0 0 0 0 0 0 0 0 0 0 0 0 0 0 0 0 0 0 0 0
0 0 0 0 0 0 0 0 0 0 0 0 0 0 0 0 0 0 0 0 0 0 0 0 0 0 0 0 0 0 0 0 0 0 0 0 0 0 0 0 0 0 0 0 0
0 0 0 0 0 0 0 0 0 0 0 0 0 0 0 0 0 0 0 0 0 0 0 0 0 0 0 0 0 0 0 0 0 0 0 0 0 0 0 0 0 0 0 0 0
0 0 0 0 0 0 0 0 0 0 0 0 0 0 0 0 0 0 0 0 0 0 0 0 0 0 0 0 0 0 0 0 0 0 0 0 0 0 0 0 0 0 0 0 0
0 0 0 0 0 0 0 0 0 0 0 0 0 0 0 0 0 0 0 0 0 0 0 0 0 0 0 0 0 0 0 0 0 0 0 0 0 0 0 0 0 0 0 0 0
CIN
-0 -0 -0 -0 -0 -0 -0 -0 -0 -0 -0 -0 -0 -0 -0 -0 -0 -0 -0 -0 -0 -0 -0 -0 -0 -0 -0 -0 -0 -0 -0 -0 -0 -0 -0 -0 -0 -0 -0 -0 -0 -0 -0 -0 -0
-0 -0 -0 -0 -0 -0 -0 -0 -0 -0 -0 -0 -0 -0 -0 -0 -0 -0 -0 -0 -0 -0 -0 -0 -0 -0 -0 -0 -0 -0 -0 -0 -0 -0 -0 -0 -0 -0 -0 -0 -0 -0 -0 -0 -0
-0 -0 -0 -0 -0 -0 -0 -0 -0 -0 -0 -0 -0 -0 -0 -0 -0 -0 -0 -0 -0 -0 -0 -0 -0 -0 -0 -0 -0 -0 -0 -0 -0 -0 -0 -0 -0 -0 -0 -0 -0 -0 -0 -0 -0
-0 -0 -0 -0 -0 -0 -0 -0 -0 -0 -0 -0 -0 -0 -0 -0 -0 -0 -0 -0 -0 -0 -0 -0 -0 -0 -0 -0 -0 -0 -0 -0 -0 -0 -0 -0 -0 -0 -0 -0 -0 -0 -0 -0 -0
-0 -0 -0 -0 -0 -0 -0 -0 -0 -0 -0 -0 -0 -0 -0 -0 -0 -0 -0 -0 -0 -0 -0 -0 -0 -0 -0 -0 -0 -0 -0 -0 -0 -0 -0 -0 -0 -0 -0 -0 -0 -0 -0 -0 -0
-0 -0 -0 -0 -0 -0 -0 -0 -0 -0 -0 -0 -0 -0 -0 -0 -0 -0 -0 -0 -0 -0 -0 -0 -0 -0 -0 -0 -0 -0 -0 -0 -0 -0 -0 -0 -0 -0 -0 -0 -0 -0 -0 -0 -0
-0 -0 -0 -0 -0 -0 -0 -0 -0 -0 -0 -0 -0 -0 -0 -0 -0 -0 -0 -0 -0 -0 -0 -0 -0 -0 -0 -0 -0 -0 -0 -0 -0 -0 -0 -0 -0 -0 -0 -0 -0 -0 -0 -0 -0
-0 -0 -0 -0 -0 -0 -0 -0 -0 -0 -0 -0 -0 -0 -0 -0 -0 -0 -0 -0 -0 -0 -0 -0 -0 -0 -0 -0 -0 -0 -0 -0 -0 -0 -0 -0 -0 -0 -0 -0 -0 -0 -0 -0 -0
-0 -0 -0 -0 -0 -0 -0 -0 -0 -0 -0 -0 -0 -0 -0 -0 -0 -0 -0 -0 -0 -0 -0 -0 -0 -0 -0 -0 -0 -0 -0 -0 -0 -0 -0 -0 -0 -0 -0 -0 -0 -0 -0 -0 -0
-0 -0 -0 -0 -0 -0 -0 -0 -0 -0 -0 -0 -0 -0 -0 -0 -0 -0 -0 -0 -0 -0 -0 -0 -0 -0 -0 -0 -0 -0 -0 -0 -0 -0 -0 -0 -0 -0 -0 -0 -0 -0 -0 -0 -0
-0 -0 -0 -0 -0 -0 -0 -0 -0 -0 -0 -0 -0 -0 -0 -0 -0 -0 -0 -0 -0 -0 -0 -0 -0 -0 -0 -0 -0 -0 -0 -0 -0 -0 -0 -0 -0 -0 -0 -0 -0 -0 -0 -0 -0
-0 -0 -0 -0 -0 -0 -0 -0 -0 -0 -0 -0 -0 -0 -0 -0 -0 -0 -0 -0 -0 -0 -0 -0 -0 -0 -0 -0 -0 -0 -0 -0 -0 -0 -0 -0 -0 -0 -0 -0 -0 -0 -0 -0 -0
-0 -0 -0 -0 -0 -0 -0 -0 -0 -0 -0 -0 -0 -0 -0 -0 -0 -0 -0 -0 -0 -0 -0 -0 -0 -0 -0 -0 -0 -0 -0 -0 -0 -0 -0 -0 -0 -0 -0 -0 -0 -0 -0 -0 -0
-0 -0 -0 -0 -0 -0 -0 -0 -0 -0 -0 -0 -0 -0 -0 -0 -0 -0 -0 -0 -0 -0 -0 -0 -0 -0 -0 -0 -0 -0 -0 -0 -0 -0 -0 -0 -0 -0 -0 -0 -0 -0 -0 -0 -0
-0 -0 -0 -0 -0 -0 -0 -0 -0 -0 -0 -0 -0 -0 -0 -0 -0 -0 -0 -0 -0 -0 -0 -0 -0 -0 -0 -0 -0 -0 -0 -0 -0 -0 -0 -0 -0 -0 -0 -0 -0 -0 -0 -0 -0
-0 -0 -0 -0 -0 -0 -0 -0 -0 -0 -0 -0 -0 -0 -0 -0 -0 -0 -0 -0 -0 -0 -0 -0 -0 -0 -0 -0 -0 -0 -0 -0 -0 -0 -0 -0 -0 -0 -0 -0 -0 -0 -0 -0 -0
-0 -0 -0 -0 -0 -0 -0 -0 -0 -0 -0 -0 -0 -0 -0 -0 -0 -0 -0 -0 -0 -0 -0 -0 -0 -0 -0 -0 -0 -0 -0 -0 -0 -0 -0 -0 -0 -0 -0 -0 -0 -0 -0 -0 -0
-0 -0 -0 -0 -0 -0 -0 -0 -0 -0 -0 -0 -0 -0 -0 -0 -0 -0 -0 -0 -0 -0 -0 -0 -0 -0 -0 -0 -0 -0 -0 -0 -0 -0 -0 -0 -0 -0 -0 -0 -0 -0 -0 -0 -0
-0 -0 -0 -0 -0 -0 -0 -0 -0 -0 -0 -0 -0 -0 -0 -0 -0 -0 -0 -0 -0 -0 -0 -0 -0 -0 -0 -0 -0 -0 -0 -0 -0 -0 -0 -0 -0 -0 -0 -0 -0 -0 -0 -0 -0
-0 -0 -0 -0 -0 -0 -0 -0 -0 -0 -0 -0 -0 -0 -0 -0 -0 -0 -0 -0 -0 -0 -0 -0 -0 -0 -0 -0 -0 -0 -0 -0 -0 -0 -0 -0 -0 -0 -0 -0 -0 -0 -0 -0 -0
-0 -0 -0 -0 -0 -0 -0 -0 -0 -0 -0 -0 -0 -0 -0 -0 -0 -0 -0 -0 -0 -0 -0 -0 -0 -0 -0 -0 -0 -0 -0 -0 -0 -0 -0 -0 -0 -0 -0 -0 -0 -0 -0 -0 -0
-0 -0 -0 -0 -0 -0 -0 -0 -0 -0 -0 -0 -0 -0 -0 -0 -0 -0 -0 -0 -0 -0 -0 -0 -0 -0 -0 -0 -0 -0 -0 -0 -0 -0 -0 -0 -0 -0 -0 -0 -0 -0 -0 -0 -0
-0 -0 -0 -0 -0 -0 -0 -0 -0 -0 -0 -0 -0 -0 -0 -0 -0 -0 -0 -0 -0 -0 -0 -0 -0 -0 -0 -0 -0 -0 -0 -0 -0 -0 -0 -0 -0 -0 -0 -0 -0 -0 -0 -0 -0
-0 -0 -0 -0 -0 -0 -0 -0 -0 -0 -0 -0 -0 -0 -0 -0 -0 -0 -0 -0 -0 -0 -0 -0 -0 -0 -0 -0 -0 -0 -0 -0 -0 -0 -0 -0 -0 -0 -0 -0 -0 -0 -0 -0 -0
-0 -0 -0 -0 -0 -0 -0 -0 -0 -0 -0 -0 -0 -0 -0 -0 -0 -0 -0 -0 -0 -0 -0 -0 -0 -0 -0 -0 -0 -0 -0 -0 -0 -0 -0 -0 -0 -0 -0 -0 -0 -0 -0 -0 -0
-0 -0 -0 -0 -0 -0 -0 -0 -0 -0 -0 -0 -0 -0 -0 -0 -0 -0 -0 -0 -0 -0 -0 -0 -0 -0 -0 -0 -0 -0 -0 -0 -0 -0 -0 -0 -0 -0 -0 -0 -0 -0 -0 -0 -0
-0 -0 -0 -0 -0 -0 -0 -0 -0 -0 -0 -0 -0 -0 -0 -0 -0 -0 -0 -0 -0 -0 -0 -0 -0 -0 -0 -0 -0 -0 -0 -0 -0 -0 -0 -0 -0 -0 -0 -0 -0 -0 -0 -0 -0
Wind_Speed
9 9 8 8 8 8 9 10 11 14 14 14 13 14 14 15 18 19 19 21 18 17 22 21 18 20 16 17 16 15 15 14 15 16 16 20 20 20 18 18 18 17 17 16 17
9 8 7 7 7 7 8 9 10 13 13 13 13 13 16 18 18 21 22 23 24 24 21 19 19 21 18 18 17 17 16 15 16 16 17 19 19 19 16 16 17 16 17 17 19
9 7 6 5 5 7 8 10 15 20 21 20 19 17 17 18 18 19 21 22 22 22 19 18 17 18 18 18 19 18 16 15 17 17 18 18 18 17 14 16 13 12 14 18 20
7 6 5 4 6 10 13 19 22 23 23 22 21 18 12 16 18 9 15 17 19 22 20 20 19 19 19 20 18 18 18 16 16 18 19 19 20 19 17 16 13 14 15 18 21
7 6 5 4 7 11 15 22 24 24 24 23 20 15 21 22 17 8 9 8 8 21 21 20 21 20 19 19 19 19 17 17 17 18 22 21 22 19 17 15 14 16 18 19 21
7 6 4 6 9 13 19 24 26 25 24 23 22 21 23 21 9 6 6 12 13 24 24 22 21 18 19 19 18 17 17 17 17 17 22 27 25 17 16 15 17 18 20 20 21
7 5 4 7 12 18 22 24 26 25 23 20 16 25 24 21 11 7 11 14 16 18 23 22 20 19 17 19 19 18 18 18 20 20 22 28 27 25 20 16 18 19 19 21 23
7 6 5 7 14 20 22 23 22 22 19 19 19 23 24 18 11 19 8 17 6 16 18 18 22 20 20 17 20 19 20 21 22 27 25 27 22 23 27 20 20 21 21 24 25
7 6 5 7 16 21 22 23 22 20 17 20 22 22 22 11 14 9 10 13 8 19 21 21 22 25 22 18 20 25 23 25 26 27 29 32 26 28 30 22 22 22 23 24 26
8 7 5 7 15 21 22 23 25 22 16 21 24 21 21 14 6 10 11 23 21 20 21 24 23 27 29 25 22 24 26 26 29 30 36 34 33 34 28 20 21 22 25 28 30
9 7 6 7 13 19 20 21 23 26 29 30 27 24 15 12 12 19 14 23 22 22 20 25 26 27 25 27 24 22 23 24 27 29 40 33 31 29 25 24 24 26 28 31 33
12 10 8 7 5 19 20 20 22 23 29 28 28 28 20 18 17 22 18 22 27 19 19 20 25 22 20 29 31 30 24 28 27 36 34 28 29 28 28 28 28 30 32 34 37
12 11 11 12 19 22 23 24 22 22 24 23 24 23 2 23 25 21 24 22 24 24 27 22 17 22 23 28 31 30 28 31 32 38 26 26 31 29 29 29 32 35 36 38 40
11 11 11 18 22 22 23 20 20 18 22 23 19 14 15 19 22 30 28 21 22 18 19 19 24 22 27 30 34 28 30 35 35 35 30 32 35 31 30 35 37 41 41 44 45
12 11 13 19 21 20 19 18 18 18 22 18 21 16 25 24 19 26 28 25 24 26 21 21 24 23 25 25 30 29 33 32 30 28 30 33 34 30 35 39 44 45 45 45 45
12 13 12 17 21 19 18 18 18 20 22 20 20 22 22 23 24 25 28 24 23 24 28 24 25 26 29 31 28 33 36 29 28 29 36 31 42 40 38 40 43 45 48 48 49
13 13 15 18 19 18 19 19 21 26 17 21 21 22 23 24 25 26 28 32 26 19 23 26 27 28 31 34 29 39 41 41 37 39 37 35 45 32 32 37 42 47 50 52 51
12 13 16 19 19 18 18 19 25 19 20 18 20 20 22 24 25 27 22 26 33 28 24 27 25 34 33 34 33 35 37 37 43 44 44 45 34 31 31 39 43 47 51 51 53
10 12 16 19 18 17 18 24 21 19 18 19 19 20 22 24 22 23 26 24 29 33 27 30 26 28 32 31 33 33 36 31 35 37 41 36 32 23 47 55 60 61 59 59 57
10 12 17 18 17 18 20 21 20 19 18 19 19 20 21 25 23 24 25 25 24 30 26 28 28 29 30 28 32 31 32 39 39 45 49 42 45 47 57 59 59 61 62 59 54
11 11 16 17 18 20 20 21 20 21 18 20 19 20 21 22 24 23 25 24 27 29 28 29 28 28 30 32 32 33 36 36 34 35 44 51 46 44 51 56 58 56 53 50 47
11 11 18 15 17 19 20 19 19 20 21 19 19 20 21 23 24 23 24 24 26 27 28 28 27 32 31 25 28 32 36 35 41 42 40 44 51 40 53 49 52 55 47 42 36
10 11 17 14 15 17 18 20 21 19 20 19 20 21 21 22 24 22 23 23 27 28 29 30 31 37 34 27 28 35 37 34 33 34 42 51 52 47 49 50 51 46 37 34 25
9 11 15 17 16 17 17 19 19 21 20 20 19 20 21 23 24 22 24 23 25 26 27 26 29 31 34 33 33 38 35 36 37 43 46 48 56 53 50 51 45 35 27 22 22
12 11 12 13 17 17 18 18 19 19 19 20 20 21 21 23 24 24 24 24 25 27 27 28 31 32 31 31 32 35 34 37 41 40 47 51 51 45 46 44 35 23 22 23 23
9 8 11 13 15 17 19 19 19 19 20 20 20 22 22 23 24 25 25 26 25 27 28 29 31 33 34 29 37 32 35 38 40 41 43 45 47 43 39 32 26 24 24 25 26
9 9 11 14 15 16 19 18 18 18 21 20 17 21 24 23 23 23 23 22 23 25 27 29 33 35 36 35 31 37 40 39 40 41 41 46 46 39 39 36 29 26 24 26 30
Wind_Direction
277 278 271 260 261 238 226 228 247 299 341 7 16 12 5 346 0 11 354 349 337 271 310 325 7 353 23 17 22 24 8 9 6 3 5 359 357 3 14 14 8 10 19 24 27
279 277 264 267 252 221 203 190 183 173 39 16 14 12 355 336 5 357 340 330 327 335 340 347 347 338 15 17 21 15 11 9 16 14 5 357 0 358 5 13 13 20 17 17 10
284 273 263 257 216 189 167 153 129 104 86 85 82 65 332 333 28 324 313 315 320 338 26 30 31 28 22 24 15 21 20 30 20 18 12 5 4 9 14 353 1 6 11 5 4
275 262 258 217 171 144 127 105 92 89 91 95 99 109 144 98 54 177 287 295 317 4 11 16 34 39 39 31 37 37 36 38 36 26 16 6 359 359 359 2 29 24 17 9 1
271 261 252 196 163 142 123 98 86 88 92 94 100 122 84 36 60 178 256 242 158 14 22 54 34 48 42 47 44 39 43 37 36 27 11 5 353 359 6 20 26 17 6 0 359
269 258 240 185 156 138 116 96 86 88 91 84 86 96 60 27 152 213 211 136 120 55 38 34 50 66 52 48 46 53 49 44 36 27 11 357 357 7 6 16 4 358 355 354 354
269 252 242 173 143 120 106 96 89 84 89 107 127 85 30 34 118 263 299 109 99 90 54 63 61 48 58 49 50 45 31 29 25 23 10 355 356 356 4 6 355 356 357 355 351
263 252 225 175 136 112 98 95 92 93 103 109 109 84 61 100 106 336 276 99 170 97 84 72 47 47 37 48 33 29 28 17 12 356 2 0 352 0 353 350 345 350 353 351 349
265 254 229 184 132 107 100 93 88 96 110 96 77 79 72 128 320 296 125 94 144 68 54 52 46 41 33 44 30 12 7 1 359 4 356 353 342 341 345 353 349 351 350 352 350
273 255 232 199 144 115 103 94 64 61 104 81 44 82 40 110 287 295 306 16 52 45 46 30 38 29 16 19 23 9 3 360 354 353 347 348 343 342 351 3 360 357 353 347 345
282 256 235 241 161 111 96 87 81 70 38 55 64 85 113 130 45 330 299 40 40 42 54 33 29 26 30 23 20 13 5 360 356 355 345 348 352 356 5 5 356 351 347 342 341
300 282 252 238 261 82 80 81 90 94 63 59 58 36 83 91 47 333 322 43 24 73 56 46 42 31 31 7 6 4 9 359 356 349 348 350 350 353 358 355 354 350 345 341 337
298 291 269 171 108 73 77 88 99 97 74 81 67 74 153 37 18 327 340 44 59 62 52 55 56 30 23 13 5 4 0 353 344 343 350 349 339 343 350 356 353 349 345 342 339
293 297 286 101 77 90 83 98 96 97 62 52 71 14 313 67 3 5 354 37 34 71 55 57 19 29 15 7 359 359 355 344 340 342 342 344 332 336 339 343 347 345 343 340 339
304 300 329 42 76 75 92 91 90 78 32 60 51 81 3 26 47 337 358 22 34 23 32 27 19 26 19 14 4 354 348 342 343 340 341 342 335 331 338 335 340 340 343 344 342
305 313 297 11 50 78 87 86 76 50 26 35 47 43 35 356 360 2 8 21 30 22 17 19 12 7 1 0 6 358 354 358 355 350 341 342 338 332 336 339 341 344 342 341 339
299 318 350 30 51 73 76 80 51 30 61 25 24 25 14 352 360 1 10 12 31 36 26 11 7 1 1 357 1 0 358 352 349 346 339 339 334 339 349 350 348 345 343 341 338
303 331 358 20 45 60 68 56 36 56 52 47 31 28 10 354 4 6 34 27 10 19 23 13 7 357 358 360 357 0 3 357 345 343 333 335 337 340 353 351 349 346 341 338 335
342 338 352 351 36 39 54 30 45 54 55 35 30 14 360 4 22 32 30 28 16 7 15 6 3 3 2 2 1 359 359 359 347 343 340 344 347 344 343 341 340 339 338 335 332
345 350 342 318 40 41 31 38 48 51 49 31 21 6 6 1 10 21 22 20 18 9 11 6 2 3 2 4 7 8 5 352 352 344 340 341 338 336 339 340 340 339 337 339 340
322 339 319 342 20 20 28 36 45 43 50 24 15 7 7 9 11 18 17 18 12 7 10 6 5 3 5 4 3 2 0 1 353 346 341 339 340 346 344 341 342 342 342 343 345
321 332 309 355 3 22 26 40 45 42 36 27 15 10 7 4 8 15 14 16 12 10 7 7 5 358 2 13 15 12 3 358 350 347 341 337 337 349 344 343 344 343 346 349 350
327 333 314 2 15 25 37 35 35 40 30 22 4 0 4 7 4 14 15 17 13 13 11 6 2 357 1 4 4 360 1 1 354 352 346 343 339 344 346 345 343 347 350 354 347
327 331 343 9 22 39 37 28 31 39 37 18 8 7 4 5 10 13 11 13 14 16 15 13 5 4 357 353 355 354 359 1 359 352 347 344 339 346 350 349 351 353 352 337 328
321 335 347 359 5 28 32 32 30 29 34 10 359 2 1 2 6 10 10 13 13 12 12 9 1 1 357 356 1 357 1 3 358 355 349 345 346 352 352 356 0 344 331 329 331
337 358 3 14 17 19 18 24 28 32 19 8 358 358 360 360 2 3 6 6 8 8 7 8 1 0 360 3 357 5 5 2 358 353 349 351 353 354 357 2 357 338 330 331 329
348 1 8 354 11 16 18 29 30 38 20 8 13 1 358 5 9 10 14 16 13 9 8 5 2 1 359 360 4 359 1 359 355 354 354 356 355 358 359 1 351 327 335 340 331